Regional Weather Roundup
Issued by NWS

Home | Current Version | Previous Version | Graphics & Text | Print | Product List | Glossary On
Versions: 1 2 3 4 5 6 7 8 9 10 11 12 13 14 15 16 17 18 19 20 21 22 23 24 25 26 27 28 29 30 31 32 33 34 35 36 37 38 39 40 41 42 43 44 45 46 47 48 49 50
000
ASUS44 KMEG 080800
RWRTN
TENNESSEE HOURLY STATE WEATHER ROUNDUP
NATIONAL WEATHER SERVICE MEMPHIS TN
200 AM CST THU DEC 08 2016

TNZ002-004-019-021-049-052-054-088>092-080900-
WEST TENNESSEE

CITY           SKY/WX    TMP DP  RH WIND       PRES   REMARKS
MEMPHIS INTL   CLOUDY    39  22  50 N13G21    30.34R WCI  31
NWS MEMPHIS      N/A     38 N/A N/A MISG        N/A
JACKSON        CLOUDY    38  25  59 N14       30.33R WCI  30
DYERSBURG      CLOUDY    37  23  56 N7        30.35R WCI  32
PARIS          CLOUDY    34  21  60 N5        30.31R WCI  30
$$

TNZ008-025-027-028-033-062-065-066-080900-
NORTH MIDDLE TENNESSEE

CITY           SKY/WX    TMP DP  RH WIND       PRES   REMARKS
NASHVILLE      CLOUDY    38  21  50 NW13      30.28R WCI  30
CLARKSVILLE    CLOUDY    36  21  54 N10       30.29R WCI  28
SMYRNA         CLOUDY    38  19  46 N13       30.28R WCI  30
CROSSVILLE     CLOUDY    34  25  69 NW8       30.17R WCI  27
$$

TNZ061-075-076-078-094-096-097-080900-
SOUTH MIDDLE TENNESSEE

CITY           SKY/WX    TMP DP  RH WIND       PRES   REMARKS
TULLAHOMA      CLOUDY    36  27  69 N9        30.21S WCI  29
WINCHESTER     PTCLDY    37  28  70 N7        30.21S WCI  32
SHELBYVILLE    CLOUDY    37  28  70 N8        30.25R WCI  31
$$

TNZ017-018-042-046-047-080900-
NORTHEAST TENNESSEE

CITY           SKY/WX    TMP DP  RH WIND       PRES   REMARKS
TRI CITIES     CLOUDY    40  31  70 W3        30.10R
$$

TNZ012-013-036-069-073-074-080900-
CENTRAL EAST TENNESSEE

CITY           SKY/WX    TMP DP  RH WIND       PRES   REMARKS
KNOXVILLE      CLOUDY    42  27  55 N8        30.14R
OAK RIDGE      CLOUDY    42  28  57 CALM      30.17R
GATLINBURG     CLOUDY    41  30  65 W6        30.15R
$$

TNZ083-085-099-080900-
SOUTHEAST TENNESSEE

CITY           SKY/WX    TMP DP  RH WIND       PRES   REMARKS
CHATTANOOGA    CLOUDY    44  32  62 NW9       30.18R
$$

SKY/WX REPORTED AS FAIR MEANS FEW OR NO CLOUDS BELOW
12 THOUSAND FEET.




USA.gov is the U.S. government's official web portal to all federal, state and local government web resources and services.